Regional Weather Roundup
Issued by NWS

Home | Current Version | Previous Version | Text Only | Print | Product List | Glossary On
Versions: 1 2 3 4 5 6 7 8 9 10 11 12 13 14 15 16 17 18 19 20 21 22 23 24 25 26 27 28 29 30 31 32 33 34 35 36 37 38 39 40 41 42 43 44 45 46 47 48 49 50
000
ASUS44 KOUN 211910
RWROK

WEATHER ROUNDUP FOR OKLAHOMA
NATIONAL WEATHER SERVICE NORMAN OK
200 PM CDT MON AUG 21 2017

NOTE: "FAIR" INDICATES FEW OR NO CLOUDS BELOW 12,000 FEET WITH NO
      SIGNIFICANT WEATHER AND/OR OBSTRUCTIONS TO VISIBILITY.

OKZ001>007-009>012-014-015-017-212000-
NORTHWEST OKLAHOMA AND THE PANHANDLE

CITY           SKY/WX    TMP DP  RH WIND       PRES   REMARKS
GAGE           PTSUNNY   81  67  62 SW10      30.06F
GUYMON         CLOUDY    80  68  66 S21       30.05F
ENID/WOODRING  MOSUNNY   91  70  49 S14       30.01S HX  97
$$

OKZ016-021>023-033>039-044-045-212000-
SOUTHWEST OKLAHOMA

CITY           SKY/WX    TMP DP  RH WIND       PRES   REMARKS
LAWTON/REGL    SUNNY     90  71  53 S13       30.05F HX  96
LAWTON/FT SILL SUNNY     88  74  63 S10       30.04F HX  97
FREDERICK      PTSUNNY   91  70  49 S14       30.03F HX  96
CLINTON        CLOUDY    87  66  49 SW14      30.07F
HOBART         SUNNY     91  69  48 S17       30.06S HX  96
ALTUS AFB      SUNNY     89  70  53 SE15      30.04F HX  94
$$

OKZ018>020-024>031-212000-
CENTRAL OKLAHOMA

CITY           SKY/WX    TMP DP  RH WIND       PRES   REMARKS
OKLAHOMA CITY  MOSUNNY   87  71  58 S12       30.06S HX  93
OKC/WILEY POST SUNNY     88  72  58 S17       30.05F HX  94
OKC/TINKER AFB SUNNY     87  70  56 S17       30.06F HX  92
STILLWATER     SUNNY     89  72  56 S13       30.03F HX  96
GUTHRIE        SUNNY     90  71  53 S12       30.03F HX  96
$$

OKZ008-013-054>072-212000-
NORTHEAST OKLAHOMA

CITY           SKY/WX    TMP DP  RH WIND       PRES   REMARKS
TULSA          MOSUNNY   89  75  63 S12       30.03F HX  99
TULSA/JONES    SUNNY     89  73  59 S10       30.05S HX  97
PONCA CITY     SUNNY     90  71  53 S10       30.01F HX  96
BARTLESVILLE   SUNNY     87  75  67 S12       30.04F HX  96
MUSKOGEE       SUNNY     87  77  72 S6        30.08F HX  99
$$

OKZ032-040>043-046>053-073>077-212000-
SOUTH CENTRAL/SOUTHEAST OKLAHOMA

CITY           SKY/WX    TMP DP  RH WIND       PRES   REMARKS
ARDMORE/DWNTWN SUNNY     88  68  51 S7        30.07S HX  91
MCALESTER      SUNNY     88  76  67 S5        30.08F HX  99
$$





USA.gov is the U.S. government's official web portal to all federal, state and local government web resources and services.